"Pseudo-MPEC" for JKt001

Created 2024 Dec 9 18:31:10 UT using Find_Orb

Click here for an explanation of pseudo-MPECs

 
 Astrometry: 
     JKt001  3C2024 11 28.61322412 50 07.334-02 04 31.91FixDup   23.4 rVNEOCPT09
     JKt001 *3C2024 11 28.61322412 50 07.334-02 04 31.91Duplicate23.4 rVNEOCPT09
     JKt001  3C2024 11 28.62444312 50 07.438-02 04 32.74   ~BT02 23.5 rVNEOCPT09
     JKt001  3C2024 11 28.63570112 50 07.538-02 04 33.38   ~BT02 23.7 rVNEOCPT09
     JKt001  3C2024 11 28.64692412 50 07.634-02 04 34.21   ~BT02 23.3 rVNEOCPT09
     JKt001  3C2024 11 29.64561512 50 16.575-02 05 37.61   ~BTGH 23.20GVNEOCPT14
     JKt001  3C2024 11 29.64716912 50 16.587-02 05 37.75   ~BTGH 23.19GVNEOCPT14
     JKt001  3C2024 11 29.64872512 50 16.611-02 05 37.76   ~BTGH 23.22GVNEOCPT14

Station data:
(T09) Mauna Kea-UH/Tholen NEO Follow-Up (Subaru)  (N19.825504 W155.476019)
   US/Hawaii.  Observer J. Kleyna. 8.2-m f/2.2 Subaru reflector.
(T14) Mauna Kea-UH/Tholen NEO Follow-Up (CFHT)  (N19.825252 W155.468876)
   US/Hawaii.  Observer R. Weryk. 3.6-m Canada-France-Hawaii Telescope.

Orbital elements:  JKt001
   Perihelion 2021 Nov 30.67252 +/- 2336 TT = 16:08:25 (JD 2459549.17252)
Epoch 2024 Nov 29.0 TT = JDT 2460643.5   Earth MOID: 0.1914   Ju: 0.7738
M  37.31078405 +/- 90               Sa: 0.0343                   AutoNEOCP
n   0.03409471 +/- 0.0611           Peri.   21.83875 +/- 60
a   9.41914181 +/- 11.3             Node   359.57827 +/- 17
e   0.8755989 +/- 0.198             Incl.  157.15516 +/- 60
P  28.90793                H 13.44  G  0.15   U 11.0  SR
q 1.17175076 +/- 4.75    Q 17.6665328 +/- 20.8            (J2000 ecliptic)
From 8 observations 2024 Nov. 28-29 (24.9 hr); mean residual 0".05
Residuals in arcseconds: 
241128 T09  .02-  .05+    241128 T09  .03+  .03+    241129 T14  .06-  .04-    
241128 T09  .02-  .05+    241128 T09  .02-  .07-    241129 T14  .10+  .04+    
241128 T09  .04+  .06-    241129 T14  .04-  .00     

Ephemerides (geocentric):
Date (UTC) HH   RA             Dec           delta  r     elong  mag " sig PA
---- --------  ------------   ------------  ------ ------ -----  --- --------
2024 12 09 19  12 51 29.116   -02 14 15.72  9.4730 9.1037  65.2 23.6  239  65
2024 12 09 20  12 51 29.342   -02 14 17.35  9.4726 9.1039  65.2 23.6  241  65
2024 12 09 21  12 51 29.567   -02 14 18.99  9.4721 9.1042  65.3 23.6  243  65
2024 12 09 22  12 51 29.792   -02 14 20.62  9.4717 9.1044  65.3 23.6  245  65
2024 12 09 23  12 51 30.016   -02 14 22.24  9.4712 9.1046  65.4 23.6  247  65
2024 12 10 00  12 51 30.239   -02 14 23.86  9.4707 9.1048  65.4 23.6  249  65
2024 12 10 01  12 51 30.462   -02 14 25.48  9.4703 9.1050  65.4 23.6  251  65
2024 12 10 02  12 51 30.684   -02 14 27.09  9.4698 9.1052  65.5 23.6  253  65
2024 12 10 03  12 51 30.906   -02 14 28.70  9.4693 9.1054  65.5 23.6  255  65
2024 12 10 04  12 51 31.127   -02 14 30.30  9.4689 9.1056  65.6 23.6  257  65
2024 12 10 05  12 51 31.347   -02 14 31.90  9.4684 9.1059  65.6 23.6  259  65
2024 12 10 06  12 51 31.567   -02 14 33.50  9.4680 9.1061  65.6 23.6  261  65
2024 12 10 07  12 51 31.786   -02 14 35.09  9.4675 9.1063  65.7 23.6  263  65
2024 12 10 08  12 51 32.005   -02 14 36.68  9.4670 9.1065  65.7 23.6  266  65
2024 12 10 09  12 51 32.222   -02 14 38.26  9.4666 9.1067  65.8 23.6  268  65
2024 12 10 10  12 51 32.440   -02 14 39.84  9.4661 9.1069  65.8 23.6  270  65
2024 12 10 11  12 51 32.656   -02 14 41.41  9.4656 9.1071  65.8 23.6  272  65
2024 12 10 12  12 51 32.872   -02 14 42.98  9.4652 9.1073  65.9 23.6  274  65
2024 12 10 13  12 51 33.088   -02 14 44.55  9.4647 9.1075  65.9 23.6  276  65
2024 12 10 14  12 51 33.302   -02 14 46.11  9.4642 9.1078  66.0 23.6  278  65
2024 12 10 15  12 51 33.517   -02 14 47.67  9.4638 9.1080  66.0 23.6  280  65
2024 12 10 16  12 51 33.730   -02 14 49.22  9.4633 9.1082  66.1 23.6  282  65
2024 12 10 17  12 51 33.943   -02 14 50.77  9.4628 9.1084  66.1 23.6  285  65
2024 12 10 18  12 51 34.155   -02 14 52.32  9.4624 9.1086  66.1 23.6  287  65
2024 12 10 19  12 51 34.367   -02 14 53.86  9.4619 9.1088  66.2 23.6  289  65
2024 12 10 20  12 51 34.578   -02 14 55.40  9.4614 9.1090  66.2 23.6  291  65
2024 12 10 21  12 51 34.788   -02 14 56.93  9.4610 9.1092  66.3 23.6  293  65
2024 12 10 22  12 51 34.998   -02 14 58.46  9.4605 9.1094  66.3 23.6  296  65
2024 12 10 23  12 51 35.207   -02 14 59.99  9.4600 9.1097  66.3 23.6  298  65
2024 12 11 00  12 51 35.416   -02 15 01.51  9.4596 9.1099  66.4 23.6  300  65
2024 12 11 01  12 51 35.624   -02 15 03.02  9.4591 9.1101  66.4 23.6  302  65
2024 12 11 02  12 51 35.831   -02 15 04.53  9.4586 9.1103  66.5 23.6  305  65
2024 12 11 03  12 51 36.038   -02 15 06.04  9.4582 9.1105  66.5 23.6  307  65
2024 12 11 04  12 51 36.244   -02 15 07.55  9.4577 9.1107  66.5 23.6  309  65
2024 12 11 05  12 51 36.449   -02 15 09.05  9.4572 9.1109  66.6 23.6  311  65
2024 12 11 06  12 51 36.654   -02 15 10.54  9.4568 9.1111  66.6 23.6  314  65
2024 12 11 07  12 51 36.858   -02 15 12.03  9.4563 9.1113  66.7 23.6  316  65
2024 12 11 08  12 51 37.062   -02 15 13.52  9.4558 9.1116  66.7 23.6  318  65
2024 12 11 09  12 51 37.265   -02 15 15.00  9.4553 9.1118  66.8 23.6  321  65
2024 12 11 10  12 51 37.467   -02 15 16.48  9.4549 9.1120  66.8 23.6  323  65
2024 12 11 11  12 51 37.669   -02 15 17.96  9.4544 9.1122  66.8 23.6  325  65
2024 12 11 12  12 51 37.870   -02 15 19.43  9.4539 9.1124  66.9 23.6  328  65
2024 12 11 13  12 51 38.071   -02 15 20.90  9.4535 9.1126  66.9 23.6  330  65
2024 12 11 14  12 51 38.270   -02 15 22.36  9.4530 9.1128  67.0 23.6  332  65
2024 12 11 15  12 51 38.470   -02 15 23.82  9.4525 9.1130  67.0 23.6  335  65
2024 12 11 16  12 51 38.668   -02 15 25.27  9.4521 9.1132  67.0 23.6  337  65
2024 12 11 17  12 51 38.866   -02 15 26.72  9.4516 9.1135  67.1 23.6  339  65
2024 12 11 18  12 51 39.063   -02 15 28.16  9.4511 9.1137  67.1 23.6  342  65